Tracking 18840 objects as of 19-November-2017
HD Live streaming from Space Station
objects crossing your sky now

FENGYUN 1C DEB

Track FENGYUN 1C DEB now!
10-day predictions


NORAD ID: 38725
Int'l Code: 1999-025ETS
Perigee: 807.9 km
Apogee: 878.1 km
Inclination: 98.9 °
Period: 101.6 minutes
Semi major axis: 7213 km
RCS: 0.0015 m2 (small)
Launch date: May 10, 1999
Source: People's Republic of China (PRC)
Launch site: Taiyaun Space Center, China (TSC)

Note: This is SATELLITE DEBRIS
aabbcc
Your satellite tracking list
Your tracking list is empty




NASA's NSSDC Master Catalog

Two Line Element Set (TLE):
1 38725U 99025ETS 17319.62385802 +.00001217 +00000-0 +62151-3 0  9994
2 38725 098.9344 019.6247 0048654 118.6778 241.9300 14.16902240314127
Source of the keplerian elements: AFSPC